Regional Weather Roundup
Issued by NWS

Home | Current Version | Previous Version | Graphics & Text | Print | Product List | Glossary On
Versions: 1 2 3 4 5 6 7 8 9 10 11 12 13 14 15 16 17 18 19 20 21 22 23 24 25 26 27 28 29 30 31 32 33 34 35 36 37 38 39 40 41 42 43 44 45 46 47 48 49 50
000
ASUS45 KPSR 060010
RWRAZ

ARIZONA HOURLY REGIONAL WEATHER ROUNDUP
NATIONAL WEATHER SERVICE PHOENIX AZ
500 PM MST FRI FEB 05 2016

NOTE: FAIR INDICATES FEW OR NO CLOUDS BELOW 12,000 FEET WITH NO
SIGNIFICANT WEATHER AND/OR OBSTRUCTIONS TO VISIBILITY.

AZZ001>003-036-060100-
NORTHWEST ARIZONA

CITY           SKY/WX    TMP DP  RH WIND       PRES   REMARKS
BULLHEAD CITY  SUNNY     63  23  22 N24G31    30.37F
KINGMAN        SUNNY     54  20  26 N17       30.38S
6HR MIN TEMP:  47; 6HR MAX TEMP:  56;

$$

AZZ004>008-015-016-018-060100-
NORTH CENTRAL ARIZONA

CITY           SKY/WX    TMP DP  RH WIND       PRES   REMARKS
GRAND CANYON   SUNNY     35  15  44 NE8       30.44S WCI  29
6HR MIN TEMP:  32; 6HR MAX TEMP:  36;

WILLIAMS       SUNNY     36  12  38 NE7       30.45S WCI  30
PRESCOTT       SUNNY     49  13  23 NE5       30.36F
6HR MIN TEMP:  42; 6HR MAX TEMP:  50;

FLAGSTAFF      SUNNY     31  14  49 E12       30.40R WCI  22
6HR MIN TEMP:  28; 6HR MAX TEMP:  32;

PAYSON         SUNNY     46   9  21 NE12      30.37S
PAGE           CLEAR     41  21  44 NE6       30.48S
6HR MIN TEMP:  33; 6HR MAX TEMP:  42;

$$

AZZ009>014-017-060100-
NORTHEAST ARIZONA

CITY           SKY/WX    TMP DP  RH WIND       PRES   REMARKS
WINSLOW        CLEAR     44  16  32 W7        30.43F
6HR MIN TEMP:  33; 6HR MAX TEMP:  45;

SAINT JOHNS    CLEAR     42   7  23 CALM      30.39S
6HR MIN TEMP:  33; 6HR MAX TEMP:  44;

WINDOW ROCK    CLEAR     37   0  21 N12       30.39S WCI  29
6HR MIN TEMP:  30; 6HR MAX TEMP:  40;

SHOW LOW       CLEAR     36  12  38 NE10      30.40S WCI  28
$$

AZZ023-060100-
GREATER PHOENIX AREA

CITY           SKY/WX    TMP DP  RH WIND       PRES   REMARKS
PHOENIX        MOSUNNY   68  15  13 E7        30.26F
6HR MIN TEMP:  58; 6HR MAX TEMP:  69;

BUCKEYE        SUNNY     66  16  14 NE8       30.30S
GLENDALE       MOSUNNY   70  16  12 N6        30.28F
LUKE AFB       SUNNY     68  17  14 N15       30.26S
6HR MIN TEMP:  62; 6HR MAX TEMP:  69; 6HR PCP: TRACE;

DEER VALLEY    SUNNY     67  14  13 N3        30.27F
6HR MIN TEMP:  59; 6HR MAX TEMP:  68;

SCOTTSDALE     SUNNY     66  13  12 CALM      30.28F
6HR MIN TEMP:  59; 6HR MAX TEMP:  68;

MESA-GATEWAY   MOSUNNY   64  30  27 NE10      30.28F
$$

AZZ027-028-060100-
SOUTHWEST MARICOPA COUNTY AND PINAL COUNTY

CITY           SKY/WX    TMP DP  RH WIND       PRES   REMARKS
CASA GRANDE    SUNNY     64  16  15 NE14      30.26F
6HR MIN TEMP:  57; 6HR MAX TEMP:  64;

GILA BEND      SUNNY     66  17  15 NE13      30.26F
6HR MIN TEMP:  58; 6HR MAX TEMP:  67;

$$

AZZ503-504-507>509-060100-
SOUTHEAST ARIZONA

CITY           SKY/WX    TMP DP  RH WIND       PRES   REMARKS
TUCSON         SUNNY     65  13  13 N5        30.25F
6HR MIN TEMP:  54; 6HR MAX TEMP:  65;

DAVIS-MONTHAN  SUNNY     62  14  15 NW5       30.23F
6HR MIN TEMP:  52; 6HR MAX TEMP:  63;

RYAN FIELD     SUNNY     64  18  16 CALM      30.25F
NOGALES        SUNNY     63   7  11 NE13G22   30.22S
6HR MIN TEMP:  54; 6HR MAX TEMP:  67;

SIERRA VISTA   SUNNY     56  10  16 NE12      30.28F
6HR MIN TEMP:  50; 6HR MAX TEMP:  59;

DOUGLAS        SUNNY     57  10  15 E12       30.29R
6HR MIN TEMP:  48; 6HR MAX TEMP:  62;

SAFFORD        CLEAR     59  11  15 VRB3      30.28F
6HR MIN TEMP:  45; 6HR MAX TEMP:  60;

$$

AZZ020-021-025-026-031-060100-
SOUTHWEST ARIZONA

CITY           SKY/WX    TMP DP  RH WIND       PRES   REMARKS
YUMA           SUNNY     71  19  14 NE18      30.28S
6HR MIN TEMP:  62; 6HR MAX TEMP:  73;

$$

CAZ031-033-041-043-047-048-061-060100-
SOUTHERN CALIFORNIA

CITY           SKY/WX    TMP DP  RH WIND       PRES   REMARKS
DOWNTOWN L.A.  SUNNY     76  24  14 VRB3      30.22F
6HR MIN TEMP:  67; 6HR MAX TEMP:  76;

L.A. AIRPORT   MOSUNNY   71  34  25 SW6       30.23F
6HR MIN TEMP:  66; 6HR MAX TEMP:  77;

SAN DIEGO      SUNNY     72  36  26 NW7       30.22S
6HR MIN TEMP:  66; 6HR MAX TEMP:  73;

BURBANK        SUNNY     74  20  13 CALM      30.23F
6HR MIN TEMP:  63; 6HR MAX TEMP:  76;

ONTARIO        SUNNY     73  18  12 NE12G17   30.24F
6HR MIN TEMP:  64; 6HR MAX TEMP:  75;

RIVERSIDE      SUNNY     73  19  13 N13G23    30.26F
6HR MIN TEMP:  66; 6HR MAX TEMP:  74;

PALM SPRINGS   SUNNY     74  19  12 N9        30.33S
6HR MIN TEMP:  67; 6HR MAX TEMP:  75;

EL CENTRO NAS  SUNNY     72  22  15 N3        30.32S
6HR MIN TEMP:  66; 6HR MAX TEMP:  74;

IMPERIAL       SUNNY     72  25  17 NW6       30.30S
6HR MIN TEMP:  63; 6HR MAX TEMP:  73;

BLYTHE         SUNNY     70  21  15 N13       30.31F
6HR MIN TEMP:  61; 6HR MAX TEMP:  71;

NEEDLES        SUNNY     65  22  19 N23G29    30.35F
6HR MIN TEMP:  59; 6HR MAX TEMP:  67;

$$

NVZ020-UTZ003-060100-
SOUTHERN NEVADA-UTAH

CITY           SKY/WX    TMP DP  RH WIND       PRES   REMARKS
LAS VEGAS      MOSUNNY   59  21  23 NE8       30.39F
6HR MIN TEMP:  49; 6HR MAX TEMP:  59;

SALT LAKE CITY MOCLDY    35  25  66 N7        30.52F WCI  29
6HR MIN TEMP:  31; 6HR MAX TEMP:  41;

$$

NMZ009-TXZ055-060100-
NEW MEXICO-WEST TEXAS

CITY           SKY/WX    TMP DP  RH WIND       PRES   REMARKS
ALBUQUERQUE    CLEAR     41   2  19 N12       30.36S
6HR MIN TEMP:  32; 6HR MAX TEMP:  43;

EL PASO        CLEAR     52  -3  10 N17       30.33R
6HR MIN TEMP:  46; 6HR MAX TEMP:  54;

$$


........................KEY........................
SKY/WX - SKY CONDITION/WEATHER
TMP    - TEMPERATURE IN FAHRENHEIT
DP     - DEW POINT IN FAHRENHEIT
RH     - RELATIVE HUMIDITY IN PERCENT
WIND   - DIRECTION AND SPEED IN MILES PER HOUR (MPH)
VRB    - VARIABLE WIND DIRECTION
PRES   - MEAN SEA LEVEL PRESSURE IN INCHES OF MERCURY
         F - FALLING PRESSURE   R - RISING PRESSURE
         S - STEADY PRESSURE
VSB    - VISIBILITY IN MILES
HX     - HEAT INDEX IN FAHRENHEIT
WCI    - WIND CHILL INDEX IN FAHRENHEIT
TC     - TEMPERATURE IN CELSIUS WHICH IS ALSO KNOWN AS
         TEMPERATURE IN CENTIGRADE
AFB    - AIR FORCE BASE
         LUKE AFB IS LUKE AIR FORCE BASE
         DAVIS-MONTHAN IS DAVIS-MONTHAN AIR FORCE BASE
NAS    - NAVAL AIR STATION
         EL CENTRO NAS IS EL CENTRO NAVAL AIR STATION
N/A    - NOT AVAILABLE




USA.gov is the U.S. government's official web portal to all federal, state and local government web resources and services.